Home   Weather   Palm Springs   Past weeks

Flag for USA Past Weather in Palm Springs, California, USA — Yesterday and Last 2 Weeks

Now
48 °F

Passing clouds.


Feels Like: 48 °F
Forecast: 48 / 55 °F
Wind: No wind

Location: Palm Springs Regional Airport

Current Time: Jan 20, 2017 at 6:11:35 am

Latest Report: Jan 20, 2017 at 4:53 am


Visibility: 10 mi

Pressure: 29.73 "Hg

Humidity: 93%

Dew Point: 46 °F

Location of Palm SpringsLocation

Past Weather in Palm Springs — Graph

°F

Palm Springs Temperature Yesterday

Maximum temperature yesterday: 57 °F (at 2:53 pm)
Minimum temperature yesterday: 49 °F (at 11:53 pm)
Average temperature yesterday: 53 °F

High & Low Weather Summary for the Past Weeks

 TemperatureHumidityPressure
High70 °F (Jan 14, 11:53 am)100% (Jan 13, 1:53 am)30.35 "Hg (Jan 13, 1:53 am)
Low44 °F (Jan 17, 5:53 am)18% (Jan 17, 2:53 pm)29.73 "Hg (Jan 20, 4:53 am)
Average57 °F62%30.04 "Hg
* Reported Jan 5 4:53 am — Jan 20 4:53 am, Palm Springs, Weather by CustomWeather, © 2017

Note: Actual official high and low records may vary slightly from our data, if they occured in-between our weather recording intervals... More about our weather records

Advertising

Palm Springs Weather History for the Previous 24 Hours

Scroll right to see more
 ConditionsComfort  
Time TempWeatherWind HumidityBarometerVisibility
4:53 am
Fri, Jan 20
48 °FPassing clouds.No wind93%29.73 "Hg10 mi
3:53 am47 °FClear.7 mph97%29.77 "Hg10 mi
2:53 am48 °FPassing clouds.No wind89%29.78 "Hg10 mi
1:53 am49 °FClear.3 mph90%29.80 "Hg10 mi
12:53 am48 °FClear.6 mph93%29.80 "Hg9 mi
11:53 pm
Thu, Jan 19
49 °FClear.8 mph93%29.83 "Hg10 mi
10:53 pm51 °FClear.5 mph86%29.84 "Hg10 mi
9:53 pm52 °FPassing clouds.3 mph89%29.84 "Hg10 mi
8:53 pm53 °FPassing clouds.3 mph86%29.85 "Hg10 mi
7:53 pm54 °FMostly cloudy.3 mph83%29.86 "Hg10 mi
6:53 pm54 °FPassing clouds.5 mph86%29.87 "Hg9 mi
5:53 pm55 °FPassing clouds.3 mph87%29.86 "Hg10 mi
4:53 pm57 °FPassing clouds.No wind78%29.85 "Hg10 mi
3:53 pm57 °FScattered clouds.6 mph81%29.85 "Hg10 mi
2:53 pm57 °FScattered clouds.6 mph81%29.85 "Hg10 mi
1:53 pm55 °FScattered clouds.No wind87%29.86 "Hg8 mi
12:53 pm54 °FBroken clouds.5 mph90%29.87 "Hg8 mi
11:53 am54 °FLight rain. Cloudy.No wind93%29.91 "Hg7 mi
11:20 am53 °FLight rain. Fog.6 mph93%29.94 "Hg5 mi
10:53 am52 °FLight rain. Fog.3 mph93%29.97 "Hg5 mi
10:28 am52 °FLight rain. Fog.10 mph97%29.98 "Hg3 mi
10:09 am52 °FLight rain. Fog.7 mph97%29.97 "Hg5 mi
9:53 am52 °FLight rain. Fog.5 mph93%29.96 "Hg6 mi
9:22 am51 °FLight rain. Fog.5 mph96%29.96 "Hg3 mi
8:53 am51 °FLight rain. Fog.6 mph96%29.96 "Hg4 mi
8:23 am50 °FRain. Fog.6 mph100%29.97 "Hg2 mi
8:04 am51 °FRain. Fog.5 mph96%29.96 "Hg2 mi
6:53 am51 °FLight rain. Partly sunny.6 mph92%29.95 "Hg7 mi
Weather by CustomWeather, © 2017

See weather overviewHow to use our weather pages